Previsão horária em Barreiras

Hoje, 25 Outubro, Domingo

Tempo Temperatura Precipitação Vento Pressão Humidade
00:00 +26°C° 0 mm 2 m/s 718 mmHg 74%
01:00 +25°C° 0 mm 2 m/s 717 mmHg 75%
02:00 +25°C° 0 mm 1 m/s 717 mmHg 76%
03:00 +25°C° 0 mm 1 m/s 717 mmHg 77%
04:00 +25°C° 0 mm 1 m/s 717 mmHg 77%
05:00 +25°C° 0 mm 1 m/s 717 mmHg 77%
06:00 +25°C° 0 mm 1 m/s 718 mmHg 77%
07:00 +27°C° 0 mm 1 m/s 718 mmHg 66%
08:00 +30°C° 0 mm 1 m/s 719 mmHg 55%
09:00 +32°C° 0 mm 1 m/s 719 mmHg 44%
10:00 +35°C° 0 mm 2 m/s 719 mmHg 39%
11:00 +36°C° 0 mm 2 m/s 719 mmHg 35%
12:00 +38°C° 0 mm 3 m/s 718 mmHg 30%
13:00 +37°C° 0 mm 3 m/s 717 mmHg 32%
14:00 +36°C° 0 mm 3 m/s 717 mmHg 34%
15:00 +35°C° 0 mm 3 m/s 716 mmHg 36%
16:00 +34°C° 0.1 mm 2 m/s 716 mmHg 41%
17:00 +31°C° 0.1 mm 2 m/s 716 mmHg 46%
18:00 +30°C° 0.1 mm 1 m/s 716 mmHg 51%
19:00 +29°C° 0.1 mm 1 m/s 717 mmHg 56%
20:00 +28°C° 0.1 mm 1 m/s 717 mmHg 61%
21:00 +28°C° 0.1 mm 1 m/s 718 mmHg 65%
22:00 +27°C° 0.2 mm 1 m/s 718 mmHg 69%
23:00 +27°C° 0.2 mm 1 m/s 717 mmHg 72%

Amanhã, 26 Outubro, Segunda-feira

Tempo Temperatura Precipitação Vento Pressão Humidade
00:00 +26°C° 0.2 mm 1 m/s 717 mmHg 76%
01:00 +24°C° 0.3 mm 0 m/s 717 mmHg 79%
02:00 +23°C° 0.3 mm 0 m/s 716 mmHg 82%
03:00 +22°C° 0.3 mm 0 m/s 716 mmHg 86%
04:00 +22°C° 0.5 mm 0 m/s 716 mmHg 86%
05:00 +22°C° 0.5 mm 0 m/s 717 mmHg 87%
06:00 +24°C° 0.5 mm 1 m/s 717 mmHg 88%
07:00 +27°C° 0.4 mm 1 m/s 718 mmHg 78%
08:00 +29°C° 0.4 mm 1 m/s 718 mmHg 67%
09:00 +32°C° 0.4 mm 1 m/s 719 mmHg 57%
10:00 +34°C° 1.2 mm 2 m/s 718 mmHg 52%
11:00 +35°C° 1.2 mm 2 m/s 718 mmHg 46%
12:00 +37°C° 1.2 mm 3 m/s 718 mmHg 41%
13:00 +36°C° 0.3 mm 3 m/s 717 mmHg 42%
14:00 +36°C° 0.3 mm 3 m/s 716 mmHg 44%
15:00 +35°C° 0.3 mm 3 m/s 715 mmHg 46%
16:00 +31°C° 1.9 mm 2 m/s 715 mmHg 60%
17:00 +28°C° 1.9 mm 2 m/s 715 mmHg 75%
18:00 +25°C° 1.9 mm 1 m/s 715 mmHg 89%
19:00 +25°C° 1 mm 1 m/s 716 mmHg 90%
20:00 +25°C° 1 mm 1 m/s 716 mmHg 90%
21:00 +25°C° 1 mm 1 m/s 717 mmHg 90%
22:00 +25°C° 1.3 mm 1 m/s 717 mmHg 90%
23:00 +24°C° 1.3 mm 1 m/s 717 mmHg 90%

Depois de amanhã, 27 Outubro, Terça-feira

Tempo Temperatura Precipitação Vento Pressão Humidade
00:00 +24°C° 1.3 mm 1 m/s 717 mmHg 91%
01:00 +24°C° 3.4 mm 1 m/s 717 mmHg 92%
02:00 +24°C° 3.4 mm 1 m/s 716 mmHg 94%
03:00 +24°C° 3.4 mm 1 m/s 716 mmHg 95%
04:00 +24°C° 2.6 mm 2 m/s 716 mmHg 95%
05:00 +24°C° 2.6 mm 2 m/s 717 mmHg 95%
06:00 +24°C° 2.6 mm 3 m/s 717 mmHg 96%
07:00 +25°C° 0.6 mm 3 m/s 718 mmHg 91%
08:00 +26°C° 0.6 mm 4 m/s 718 mmHg 87%
09:00 +27°C° 0.6 mm 4 m/s 718 mmHg 82%
10:00 +29°C° 0 mm 4 m/s 718 mmHg 73%
11:00 +32°C° 0 mm 4 m/s 718 mmHg 64%
12:00 +34°C° 0 mm 4 m/s 717 mmHg 54%
13:00 +34°C° 0.1 mm 3 m/s 716 mmHg 51%
14:00 +35°C° 0.1 mm 3 m/s 716 mmHg 48%
15:00 +36°C° 0.1 mm 2 m/s 715 mmHg 46%
16:00 +32°C° 1 mm 2 m/s 715 mmHg 56%
17:00 +30°C° 1 mm 2 m/s 715 mmHg 66%
18:00 +28°C° 1 mm 1 m/s 715 mmHg 77%
19:00 +27°C° 0.2 mm 1 m/s 715 mmHg 79%
20:00 +27°C° 0.2 mm 1 m/s 716 mmHg 80%
21:00 +26°C° 0.2 mm 1 m/s 717 mmHg 82%
22:00 +26°C° 0 mm 1 m/s 716 mmHg 82%
23:00 +26°C° 0 mm 1 m/s 716 mmHg 82%

28 Outubro, Quarta-feira

Tempo Temperatura Precipitação Vento Pressão Humidade
00:00 +24°C° 0 mm 0 m/s 716 mmHg 82%
01:00 +23°C° 0.4 mm 0 m/s 716 mmHg 84%
02:00 +23°C° 0.4 mm 0 m/s 716 mmHg 86%
03:00 +23°C° 0.4 mm 0 m/s 715 mmHg 89%
04:00 +23°C° 0.1 mm 0 m/s 716 mmHg 88%
05:00 +23°C° 0.1 mm 0 m/s 716 mmHg 88%
06:00 +23°C° 0.1 mm 0 m/s 717 mmHg 88%
07:00 +25°C° 0 mm 0 m/s 717 mmHg 81%
08:00 +28°C° 0 mm 1 m/s 718 mmHg 73%
09:00 +30°C° 0 mm 1 m/s 718 mmHg 66%
10:00 +32°C° 0.9 mm 1 m/s 718 mmHg 61%
11:00 +34°C° 0.9 mm 2 m/s 717 mmHg 56%
12:00 +35°C° 0.9 mm 2 m/s 717 mmHg 52%
13:00 +32°C° 1 mm 2 m/s 716 mmHg 59%
14:00 +30°C° 1 mm 3 m/s 715 mmHg 67%
15:00 +28°C° 1 mm 3 m/s 714 mmHg 74%
16:00 +27°C° 2.3 mm 3 m/s 714 mmHg 80%
17:00 +26°C° 2.3 mm 3 m/s 714 mmHg 85%
18:00 +25°C° 2.3 mm 2 m/s 714 mmHg 91%
19:00 +25°C° 0.5 mm 2 m/s 715 mmHg 90%
20:00 +25°C° 0.5 mm 1 m/s 716 mmHg 89%
21:00 +25°C° 0.5 mm 1 m/s 716 mmHg 88%
22:00 +25°C° 0.3 mm 1 m/s 716 mmHg 89%
23:00 +25°C° 0.3 mm 1 m/s 716 mmHg 89%

29 Outubro, Quinta-feira

Tempo Temperatura Precipitação Vento Pressão Humidade
00:00 +25°C° 0.3 mm 1 m/s 716 mmHg 90%
01:00 +25°C° 0.1 mm 1 m/s 716 mmHg 90%
02:00 +24°C° 0.1 mm 1 m/s 716 mmHg 91%
03:00 +22°C° 0.1 mm 0 m/s 715 mmHg 91%
04:00 +22°C° 0.3 mm 0 m/s 716 mmHg 91%
05:00 +23°C° 0.3 mm 0 m/s 716 mmHg 91%
06:00 +23°C° 0.3 mm 0 m/s 717 mmHg 91%
07:00 +26°C° 1.2 mm 1 m/s 717 mmHg 88%
08:00 +27°C° 1.2 mm 2 m/s 718 mmHg 85%
09:00 +27°C° 1.2 mm 3 m/s 718 mmHg 81%
10:00 +28°C° 0.5 mm 3 m/s 718 mmHg 78%
11:00 +29°C° 0.5 mm 2 m/s 718 mmHg 75%
12:00 +29°C° 0.5 mm 2 m/s 718 mmHg 71%
13:00 +29°C° 1.2 mm 2 m/s 717 mmHg 71%
14:00 +30°C° 1.2 mm 3 m/s 717 mmHg 71%
15:00 +30°C° 1.2 mm 3 m/s 717 mmHg 71%
16:00 +28°C° 1.3 mm 2 m/s 717 mmHg 78%
17:00 +27°C° 1.3 mm 2 m/s 717 mmHg 84%
18:00 +25°C° 1.3 mm 1 m/s 717 mmHg 91%
19:00 +25°C° 0.3 mm 1 m/s 717 mmHg 91%
20:00 +25°C° 0.3 mm 1 m/s 718 mmHg 91%
21:00 +25°C° 0.3 mm 1 m/s 718 mmHg 90%
22:00 +25°C° 0.2 mm 1 m/s 718 mmHg 91%
23:00 +25°C° 0.2 mm 1 m/s 718 mmHg 91%

30 Outubro, Sexta-feira

Tempo Temperatura Precipitação Vento Pressão Humidade
00:00 +25°C° 0.2 mm 1 m/s 718 mmHg 92%
01:00 +24°C° 0.8 mm 1 m/s 718 mmHg 93%
02:00 +24°C° 0.8 mm 1 m/s 717 mmHg 95%
03:00 +22°C° 0.8 mm 0 m/s 717 mmHg 96%
04:00 +22°C° 0.4 mm 0 m/s 717 mmHg 95%
05:00 +22°C° 0.4 mm 0 m/s 718 mmHg 95%
06:00 +22°C° 0.4 mm 0 m/s 718 mmHg 95%
07:00 +26°C° 0 mm 1 m/s 719 mmHg 86%
08:00 +27°C° 0 mm 2 m/s 719 mmHg 77%
09:00 +29°C° 0 mm 3 m/s 720 mmHg 68%
10:00 +31°C° 0 mm 3 m/s 719 mmHg 60%
11:00 +34°C° 0 mm 3 m/s 719 mmHg 53%
12:00 +35°C° 0 mm 3 m/s 719 mmHg 45%
13:00 +35°C° 0 mm 3 m/s 718 mmHg 44%
14:00 +36°C° 0 mm 3 m/s 718 mmHg 42%
15:00 +36°C° 0 mm 3 m/s 717 mmHg 41%
16:00 +34°C° 0 mm 2 m/s 717 mmHg 46%
17:00 +31°C° 0 mm 2 m/s 717 mmHg 51%
18:00 +30°C° 0 mm 1 m/s 717 mmHg 56%
19:00 +29°C° 0 mm 1 m/s 717 mmHg 59%
20:00 +28°C° 0 mm 1 m/s 718 mmHg 61%
21:00 +27°C° 0 mm 1 m/s 718 mmHg 64%
22:00 +27°C° 0 mm 1 m/s 718 mmHg 65%
23:00 +26°C° 0 mm 1 m/s 718 mmHg 66%
Mostrar mais